421  
ASUS42 KRAH 201710  
RWRRAH  
NORTH CAROLINA WEATHER ROUNDUP  
NATIONAL WEATHER SERVICE RALEIGH NC  
1200 PM EST TUE FEB 20 2018  
 
NOTE: "FAIR" INDICATES FEW OR NO CLOUDS BELOW 12,000 FEET WITH NO  
SIGNIFICANT WEATHER AND/OR S TO VISIBILITY
.  
 
NCZ001-053-055-056-065-067-201800-  
WESTERN NORTH CAROLINA  
 
CITY SKY/WX TMP DP RH WIND PRES REMARKS
 
ASHEVILLE PTSUNNY 64 56 75 S12G21 30.45S  
JEFFERSON CLOUDY 60 52 74 S3 30.45S  
MORGANTON CLOUDY 58 58 100 CALM 30.48S  
HICKORY CLOUDY 58 58 100 S6 30.44F  
RUTHERFORDTON FOG 57 57 100 CALM 30.46S VSB 1/2  
MOUNT AIRY CLOUDY 56 53 88 CALM 30.47F FOG  
BOONE CLOUDY 57 54 89 S6 30.46F  

 
 
NCZ021-022-025-041-071-084-088-201800-  
CENTRAL NORTH CAROLINA  
 
CITY SKY/WX TMP DP RH WIND PRES REMARKS
 
CHARLOTTE CLOUDY 64 63 96 VRB6 30.45F FOG  
GREENSBORO CLOUDY 61 61 100 SW6 30.44F  
WINSTON-SALEM CLOUDY 58 58 100 SW6 30.46F FOG  
RALEIGH-DURHAM FOG 60 60 100 SW5 30.47F VSB 1/4  
FORT BRAGG FAIR 70 70 100 W5 30.45F  
FAYETTEVILLE PTSUNNY 76 65 68 S10 30.44F  
BURLINGTON CLOUDY 63 62 97 S7 30.45F  
LAURINBURG FAIR 71 65 81 SW5 30.46F  

 
 
NCZ011-015-027-028-043-044-047-080-103-201800-  
NORTHEASTERN NORTH CAROLINA  
 
CITY SKY/WX TMP DP RH WIND PRES REMARKS
 
ROCKY MT-WILSO CLOUDY 64 62 93 VRB3 30.47F FOG  
GREENVILLE FAIR 73 64 73 SW7 30.47S  
WASHINGTON CLOUDY 75 66 73 SW7 30.47F  
ELIZABETH CITY PTSUNNY 73 68 84 S13 30.47F  
MANTEO CLOUDY 61 60 96 SW6 30.49F  
CAPE HATTERAS CLOUDY 72 66 81 S8 30.50F  

 
 
NCZ078-087-090-091-093-098-101-201800-  
SOUTHEASTERN NORTH CAROLINA  
 
CITY SKY/WX TMP DP RH WIND PRES REMARKS
 
LUMBERTON PTSUNNY 75 65 70 S8 30.44F  
GOLDSBORO FAIR 75 65 70 S9 30.44F  
KINSTON FAIR 77 66 69 SW9 30.47F  
KENANSVILLE PTSUNNY 75 64 69 SW6 30.46F  
NEW BERN CLOUDY 77 66 68 S10 30.47F  
CHERRY POINT MOSUNNY 77 68 73 S16G23 30.49F  
BEAUFORT FAIR 75 66 73 S12 30.48F  
JACKSONVILLE FAIR 78 66 66 S12 30.46F  
WILMINGTON FAIR 77 65 66 S9 30.46F  

 
 
 
 
CLICK HERE TO GO TO PREVIOUS BULLETINS.

The Nexlab NC Page Main Text Page